CSN9841 ZUTF-ZULS

Flight info

Callsign CSN9841
Flight time N/A
Altitude 36100
Route MUMGO B213 LXA
Aircraft A20N/M-SADE1E2E3GHIJ1J3J5M1P2RWXY/LB2D1

Departure

Time 2026-05-05 08:16
Airport Chengdu Tianfu International Airport (ZUTF)

Arrival

Time N/A
Airport Lhasa Gonggar International Airport (ZULS)
Time Latitude Longitude Altitude Speed Heading
2026-05-05 07:46 30.31055 104.44136 1460 ft 0 kts 114°
2026-05-05 07:57 30.31060 104.44124 1460 ft 2 kts 113°
2026-05-05 07:57 30.31066 104.44108 1460 ft 2 kts 114°
2026-05-05 07:57 30.31072 104.44092 1460 ft 2 kts 114°
2026-05-05 07:58 30.31076 104.44080 1460 ft 1 kts 112°
2026-05-05 07:58 30.31080 104.44076 1460 ft 0 kts 178°
2026-05-05 07:58 30.31086 104.44077 1460 ft 1 kts 208°
2026-05-05 07:58 30.31089 104.44079 1460 ft 0 kts 203°
2026-05-05 08:03 30.31088 104.44079 1460 ft 0 kts 203°
2026-05-05 08:03 30.31082 104.44076 1460 ft 1 kts 202°
2026-05-05 08:03 30.31070 104.44070 1460 ft 2 kts 202°
2026-05-05 08:03 30.31046 104.44059 1460 ft 4 kts 202°
2026-05-05 08:04 30.31007 104.44041 1460 ft 7 kts 200°
2026-05-05 08:04 30.30953 104.44018 1460 ft 9 kts 201°
2026-05-05 08:04 30.30887 104.43986 1460 ft 11 kts 202°
2026-05-05 08:04 30.30809 104.43948 1460 ft 13 kts 202°
2026-05-05 08:05 30.30716 104.43914 1460 ft 14 kts 175°
2026-05-05 08:05 30.30655 104.44006 1460 ft 15 kts 112°
2026-05-05 08:05 30.30613 104.44125 1460 ft 16 kts 112°
2026-05-05 08:05 30.30568 104.44254 1460 ft 17 kts 111°
2026-05-05 08:06 30.30520 104.44387 1460 ft 18 kts 112°
2026-05-05 08:06 30.30473 104.44521 1460 ft 17 kts 112°
2026-05-05 08:06 30.30437 104.44620 1459 ft 0 kts 112°
2026-05-05 08:08 30.30437 104.44621 1459 ft 0 kts 112°
2026-05-05 08:08 30.30434 104.44628 1459 ft 1 kts 111°
2026-05-05 08:08 30.30427 104.44650 1460 ft 4 kts 111°
2026-05-05 08:08 30.30405 104.44713 1460 ft 10 kts 111°
2026-05-05 08:09 30.30377 104.44792 1459 ft 10 kts 112°
2026-05-05 08:09 30.30347 104.44873 1459 ft 10 kts 113°
2026-05-05 08:09 30.30344 104.44882 1459 ft 0 kts 113°
2026-05-05 08:10 30.30338 104.44896 1459 ft 5 kts 112°
2026-05-05 08:11 30.30316 104.44961 1459 ft 12 kts 107°
2026-05-05 08:11 30.30356 104.45061 1459 ft 18 kts 15°
2026-05-05 08:11 30.30466 104.44980 1459 ft 23 kts 297°
2026-05-05 08:11 30.30544 104.44797 1459 ft 26 kts 325°
2026-05-05 08:12 30.30698 104.44833 1460 ft 22 kts 343°
2026-05-05 08:12 30.30858 104.44795 1460 ft 24 kts 354°
2026-05-05 08:12 30.31013 104.44887 1459 ft 28 kts 42°
2026-05-05 08:12 30.31185 104.44986 1460 ft 24 kts 21°
2026-05-05 08:13 30.31207 104.45137 1459 ft 19 kts 66°
2026-05-05 08:13 30.31316 104.45216 1459 ft 18 kts 23°
2026-05-05 08:13 30.31436 104.45277 1459 ft 18 kts 32°
2026-05-05 08:13 30.31446 104.45409 1459 ft 17 kts 108°
2026-05-05 08:14 30.31401 104.45538 1459 ft 17 kts 113°
2026-05-05 08:14 30.31356 104.45661 1459 ft 16 kts 112°
2026-05-05 08:14 30.31311 104.45787 1459 ft 16 kts 112°
2026-05-05 08:14 30.31312 104.45907 1459 ft 16 kts 37°
2026-05-05 08:15 30.31415 104.45958 1459 ft 16 kts 20°
2026-05-05 08:15 30.31484 104.46048 1459 ft 15 kts 82°
2026-05-05 08:15 30.31449 104.46177 1459 ft 27 kts 112°
2026-05-05 08:15 30.31289 104.46631 1459 ft 93 kts 111°
2026-05-05 08:16 30.30971 104.47528 1459 ft 147 kts 111°
2026-05-05 08:16 30.30525 104.48792 1539 ft 183 kts 115°
2026-05-05 08:16 30.30066 104.50069 2311 ft 166 kts 114°
2026-05-05 08:16 30.29631 104.51254 2955 ft 161 kts 114°
2026-05-05 08:17 30.29197 104.52430 3423 ft 162 kts 113°
2026-05-05 08:17 30.28754 104.53680 3682 ft 175 kts 112°
2026-05-05 08:17 30.28276 104.55043 3957 ft 190 kts 112°
2026-05-05 08:17 30.27759 104.56507 4240 ft 205 kts 112°
2026-05-05 08:18 30.27191 104.58111 4522 ft 223 kts 112°
2026-05-05 08:18 30.26576 104.59845 4764 ft 244 kts 112°
2026-05-05 08:18 30.25907 104.61728 5143 ft 261 kts 112°
2026-05-05 08:18 30.25203 104.63708 5698 ft 271 kts 112°
2026-05-05 08:19 30.24485 104.65733 6448 ft 273 kts 113°
2026-05-05 08:19 30.23773 104.67756 7198 ft 276 kts 114°
2026-05-05 08:19 30.23045 104.69818 7904 ft 280 kts 115°
2026-05-05 08:19 30.22310 104.71888 8615 ft 284 kts 116°
2026-05-05 08:20 30.21554 104.74012 9326 ft 287 kts 116°
2026-05-05 08:20 30.20788 104.76158 10005 ft 291 kts 115°
2026-05-05 08:20 30.20348 104.78459 10477 ft 309 kts 93°
2026-05-05 08:20 30.20818 104.80971 10799 ft 333 kts 67°
2026-05-05 08:21 30.22258 104.83145 11088 ft 354 kts 40°
2026-05-05 08:21 30.24479 104.84532 11399 ft 370 kts 22°
2026-05-05 08:21 30.26931 104.85623 11665 ft 386 kts 21°
2026-05-05 08:21 30.29458 104.86747 12095 ft 394 kts 21°
2026-05-05 08:22 30.32080 104.87685 12659 ft 397 kts
2026-05-05 08:22 30.34825 104.87521 13274 ft 395 kts 344°
2026-05-05 08:22 30.37307 104.86231 13933 ft 390 kts 324°
2026-05-05 08:22 30.39479 104.84390 14513 ft 391 kts 321°
2026-05-05 08:23 30.41648 104.82479 15055 ft 394 kts 321°
2026-05-05 08:23 30.43860 104.80560 15609 ft 397 kts 322°
2026-05-05 08:23 30.46009 104.78564 16040 ft 400 kts 313°
2026-05-05 08:23 30.47549 104.75937 16528 ft 399 kts 292°
2026-05-05 08:24 30.48249 104.72827 17083 ft 397 kts 275°
2026-05-05 08:24 30.48425 104.69654 17603 ft 399 kts 273°
2026-05-05 08:24 30.48589 104.66451 18065 ft 402 kts 273°
2026-05-05 08:24 30.48761 104.63223 18500 ft 405 kts 274°
2026-05-05 08:25 30.48942 104.59937 18826 ft 411 kts 274°
2026-05-05 08:25 30.49129 104.56634 19244 ft 414 kts 274°
2026-05-05 08:25 30.49318 104.53296 19707 ft 416 kts 274°
2026-05-05 08:25 30.49507 104.49949 20161 ft 418 kts 274°
2026-05-05 08:26 30.49699 104.46567 20595 ft 420 kts 274°
2026-05-05 08:26 30.49889 104.43209 21024 ft 422 kts 274°
2026-05-05 08:26 30.50080 104.39815 21444 ft 424 kts 274°
2026-05-05 08:26 30.50273 104.36385 21831 ft 426 kts 274°
2026-05-05 08:27 30.50464 104.32970 22226 ft 428 kts 274°
2026-05-05 08:27 30.50652 104.29541 22632 ft 430 kts 274°
2026-05-05 08:27 30.50843 104.26069 23016 ft 432 kts 274°
2026-05-05 08:27 30.51115 104.22604 23392 ft 434 kts 277°
2026-05-05 08:28 30.51575 104.19141 23742 ft 437 kts 281°
2026-05-05 08:28 30.52229 104.15688 24075 ft 440 kts 284°
2026-05-05 08:28 30.53030 104.12257 24432 ft 441 kts 285°
2026-05-05 08:28 30.53854 104.08833 24768 ft 443 kts 286°
2026-05-05 08:29 30.54689 104.05376 25085 ft 446 kts 286°
2026-05-05 08:29 30.55516 104.01945 25401 ft 448 kts 286°
2026-05-05 08:29 30.56351 103.98469 25738 ft 449 kts 286°
2026-05-05 08:30 30.58130 103.91515 26319 ft 452 kts 288°
2026-05-05 08:30 30.59100 103.88042 26631 ft 452 kts 288°
2026-05-05 08:30 30.60070 103.84582 26945 ft 453 kts 288°
2026-05-05 08:30 30.61042 103.81105 27318 ft 451 kts 289°
2026-05-05 08:31 30.61998 103.77679 27712 ft 450 kts 289°
2026-05-05 08:31 30.62962 103.74221 28122 ft 448 kts 288°
2026-05-05 08:31 30.63910 103.70815 28536 ft 445 kts 289°
2026-05-05 08:31 30.64810 103.67418 28926 ft 444 kts 287°
2026-05-05 08:32 30.65656 103.63982 29309 ft 443 kts 287°
2026-05-05 08:32 30.66491 103.60547 29717 ft 441 kts 287°
2026-05-05 08:32 30.67323 103.57113 30148 ft 438 kts 287°
2026-05-05 08:32 30.68135 103.53756 30569 ft 435 kts 287°
2026-05-05 08:33 30.68954 103.50373 31010 ft 432 kts 287°
2026-05-05 08:33 30.69755 103.47061 31438 ft 428 kts 287°
2026-05-05 08:33 30.70555 103.43740 31859 ft 425 kts 287°
2026-05-05 08:33 30.71352 103.40436 32257 ft 422 kts 287°